Track COSMOS 2213 now! 10-day predictions COSMOS 2213 is classified as:
1 22184U 92068C 25193.49870168 .00000006 00000-0 -27640-4 0 9995 2 22184 82.5979 203.2494 0003318 155.1600 12.7563 12.62601197508086